Time,TemperatureF,DewpointF,PressureIn,WindDirection,WindDirectionDegrees,WindSpeedMPH,WindSpeedGustMPH,Humidity,HourlyPrecipIn,Conditions,Clouds,dailyrainin,SoftwareType,DateUTC
2013-10-15 00:22:00,60.0,47.0,-100.00,SSE,165,0.0,0.0,61,-99.99,,,-99.99,,2013-10-15 05:22:00,
2013-10-15 00:53:00,58.0,51.0,-100.00,SSE,155,0.0,0.0,79,-99.99,,,-99.99,,2013-10-15 05:53:00,
2013-10-15 01:22:00,57.0,53.0,-100.00,SSE,160,0.0,0.0,86,-99.99,,,-99.99,,2013-10-15 06:22:00,
2013-10-15 01:52:00,57.0,54.0,-100.00,South,175,0.0,0.0,88,-99.99,,,-99.99,,2013-10-15 06:52:00,
2013-10-15 02:22:00,57.0,54.0,-100.00,SE,135,0.0,0.0,90,-99.99,,,-99.99,,2013-10-15 07:22:00,
2013-10-15 02:53:00,57.0,56.0,-100.00,SE,145,0.0,0.0,95,-99.99,,,-99.99,,2013-10-15 07:53:00,
2013-10-15 03:22:00,57.0,56.0,-100.00,SSE,160,0.0,0.0,98,-99.99,,,-99.99,,2013-10-15 08:22:00,
2013-10-15 03:52:00,58.0,57.0,-100.00,SSE,160,0.0,0.0,98,-99.99,,,-99.99,,2013-10-15 08:52:00,
2013-10-15 04:22:00,58.0,57.0,-100.00,SE,135,0.0,0.0,99,-99.99,,,-99.99,,2013-10-15 09:22:00,
2013-10-15 04:53:00,58.0,57.0,-100.00,South,180,0.0,0.0,99,-99.99,,,-99.99,,2013-10-15 09:53:00,
2013-10-15 05:23:00,58.0,58.0,-100.00,South,185,0.0,0.0,99,-99.99,,,-99.99,,2013-10-15 10:23:00,
2013-10-15 05:53:00,58.0,58.0,-100.00,South,180,0.0,0.0,99,-99.99,,,-99.99,,2013-10-15 10:53:00,
2013-10-15 06:22:00,58.0,58.0,-100.00,SW,230,0.0,0.0,99,-99.99,,,-99.99,,2013-10-15 11:22:00,
2013-10-15 06:53:00,58.0,58.0,-100.00,SSE,165,0.0,0.0,99,-99.99,,,-99.99,,2013-10-15 11:53:00,
2013-10-15 07:22:00,58.0,57.0,-100.00,ESE,105,0.0,0.0,99,-99.99,,,-99.99,,2013-10-15 12:22:00,
2013-10-15 07:52:00,58.0,58.0,-100.00,SSE,160,0.0,0.0,99,-99.99,,,-99.99,,2013-10-15 12:52:00,
2013-10-15 08:21:00,59.0,59.0,-100.00,South,180,0.0,0.0,99,-99.99,,,-99.99,,2013-10-15 13:21:00,
2013-10-15 08:52:00,60.0,60.0,-100.00,South,175,0.0,0.0,99,-99.99,,,-99.99,,2013-10-15 13:52:00,
2013-10-15 09:22:00,61.0,61.0,-100.00,SSW,210,0.0,0.0,99,-99.99,,,-99.99,,2013-10-15 14:22:00,
2013-10-15 09:32:00,61.0,61.0,-100.00,SSW,210,0.0,0.0,99,-99.99,,,-99.99,,2013-10-15 14:32:00,
2013-10-15 09:42:00,61.0,61.0,-100.00,SSW,210,0.0,0.0,99,-99.99,,,-99.99,,2013-10-15 14:42:00,
2013-10-15 15:52:00,67.0,53.0,-100.00,WSW,255,0.0,0.0,61,-99.99,,,-99.99,,2013-10-15 20:52:00,
2013-10-15 16:22:00,67.0,52.0,-100.00,West,275,0.0,0.0,58,-99.99,,,-99.99,,2013-10-15 21:22:00,
2013-10-15 16:54:00,67.0,50.0,-100.00,WSW,255,0.0,0.0,53,-99.99,,,-99.99,,2013-10-15 21:54:00,
2013-10-15 17:23:00,66.0,47.0,-100.00,West,275,0.0,0.0,50,-99.99,,,-99.99,,2013-10-15 22:23:00,
2013-10-15 17:53:00,66.0,46.0,-100.00,West,275,0.0,0.0,49,-99.99,,,-99.99,,2013-10-15 22:53:00,
2013-10-15 18:22:00,64.0,44.0,-100.00,West,275,0.0,0.0,48,-99.99,,,-99.99,,2013-10-15 23:22:00,
2013-10-15 18:52:00,62.0,43.0,-100.00,WNW,285,0.0,0.0,50,-99.99,,,-99.99,,2013-10-15 23:52:00,
2013-10-15 19:22:00,59.0,43.0,-100.00,West,275,0.0,0.0,55,-99.99,,,-99.99,,2013-10-16 00:22:00,
2013-10-15 19:52:00,58.0,44.0,-100.00,West,275,0.0,0.0,60,-99.99,,,-99.99,,2013-10-16 00:52:00,
2013-10-15 20:22:00,56.0,44.0,-100.00,West,270,0.0,0.0,64,-99.99,,,-99.99,,2013-10-16 01:22:00,
2013-10-15 20:52:00,55.0,44.0,-100.00,West,280,0.0,0.0,67,-99.99,,,-99.99,,2013-10-16 01:52:00,
2013-10-15 21:22:00,54.0,44.0,-100.00,West,280,0.0,0.0,70,-99.99,,,-99.99,,2013-10-16 02:22:00,
2013-10-15 21:52:00,53.0,44.0,-100.00,NW,320,0.0,0.0,73,-99.99,,,-99.99,,2013-10-16 02:52:00,
2013-10-15 22:22:00,51.0,43.0,-100.00,NW,305,0.0,0.0,73,-99.99,,,-99.99,,2013-10-16 03:22:00,
2013-10-15 22:55:00,50.0,43.0,-100.00,NW,305,0.0,0.0,75,-99.99,,,-99.99,,2013-10-16 03:55:00,
2013-10-15 23:24:00,49.0,43.0,-100.00,WNW,285,0.0,0.0,79,-99.99,,,-99.99,,2013-10-16 04:24:00,
2013-10-15 23:54:00,47.0,43.0,-100.00,WSW,250,0.0,0.0,84,-99.99,,,-99.99,,2013-10-16 04:54:00,